Find Starlink 31919

NORAD ID: 59880 Int'l Des: 2024-098 Owner: SPXS Country: US Constellation: starlink operational
LEOCIRCULAR

当前视图

正在加载3D地球...

About Starlink 31919

Starlink 31919 (NORAD 59880) is a starlink constellation satellite (v2 mini) launched May 24, 2024 by SPXS of US. It operates in LEO, CIRCULAR orbit with a mass of 730.00 kg.

即将过境

Passes for default location (London). Set your location on the main map for personalized predictions.

高度历史

Loading altitude history...

两行轨道根数

1 59880U 24098Y 26228.67685477 -.00000018 00000-0 88580-5 0 9997
2 59880 43.0048 94.5129 0000973 268.0344 92.0396 15.27581410126313
Epoch: Aug 16, 2026 • Age: 16 hours

当前状态

高度 485.1 km
远地点 / 近地点 N/A
速度 7.63 km/s
星下点 34.98°N, 129.6°E
发射日期 May 24, 2024
运行时间 2.2 years
类型 internet

技术详情

分类 Payload
质量 730.00 kg
干质量 700.00 kg
总质量 730.00 kg
长度 0.30 m
直径 4.10 m
跨度 29.00 m
形状 Box + pan
制造商 SPXS
平台类型 Starlink V2M
阶段状态 In Orbit
所有者/国家 SPXS/US

Most Searched